| time (UTC) | temp C | wind direction | speed KPH | gust KPH | rain 1hr cm | rain 24hr cm | rain mn cm | humidity % | barometer mb |
| 20260906130034 | 32 | 209 | 17.7 | 27.4 | 0.00 | 0.00 | 0.00 | 55 | 1010.0 |
| 20260906125520 | 31 | 204 | 16.1 | 32.2 | 0.00 | 0.00 | 0.00 | 57 | 1010.0 |
| 20260906125019 | 31 | 235 | 22.5 | 32.2 | 0.00 | 0.00 | 0.00 | 49 | 1010.0 |
| 20260906124535 | 31 | 181 | 16.1 | 25.7 | 0.00 | 0.00 | 0.00 | 55 | 1010.1 |
| 20260906124023 | 31 | 215 | 19.3 | 30.6 | 0.00 | 0.00 | 0.00 | 56 | 1010.1 |
| 20260906123516 | 31 | 252 | 20.9 | 30.6 | 0.00 | 0.00 | 0.00 | 61 | 1010.2 |
| 20260906123024 | 31 | 214 | 20.9 | 27.4 | 0.00 | 0.00 | 0.00 | 64 | 1010.1 |
| 20260906122514 | 31 | 205 | 19.3 | 27.4 | 0.00 | 0.00 | 0.00 | 65 | 1010.1 |
| 20260906122016 | 31 | 204 | 20.9 | 27.4 | 0.00 | 0.00 | 0.00 | 63 | 1010.1 |
| 20260906121527 | 31 | 195 | 20.9 | 27.4 | 0.00 | 0.00 | 0.00 | 57 | 1010.2 |
| 20260906121018 | 31 | 212 | 17.7 | 27.4 | 0.00 | 0.00 | 0.00 | 62 | 1010.2 |
| 20260906120517 | 30 | 235 | 20.9 | 27.4 | 0.00 | 0.00 | 0.00 | 62 | 1010.3 |
| 20260906120038 | 30 | 223 | 16.1 | 27.4 | 0.00 | 0.00 | 0.00 | 68 | 1010.3 |
| 20260906115516 | 30 | 212 | 20.9 | 27.4 | 0.00 | 0.00 | 0.00 | 66 | 1010.4 |
| 20260906115017 | 31 | 196 | 19.3 | 27.4 | 0.00 | 0.00 | 0.00 | 64 | 1010.3 |
| 20260906114544 | 30 | 179 | 20.9 | 27.4 | 0.00 | 0.00 | 0.00 | 67 | 1010.2 |
| 20260906114012 | 30 | 236 | 17.7 | 27.4 | 0.00 | 0.00 | 0.00 | 65 | 1010.3 |
| 20260906113512 | 30 | 209 | 16.1 | 30.6 | 0.00 | 0.00 | 0.00 | 67 | 1010.3 |
| 20260906113024 | 30 | 210 | 17.7 | 32.2 | 0.00 | 0.00 | 0.00 | 67 | 1010.3 |
| 20260906112513 | 30 | 201 | 24.1 | 32.2 | 0.00 | 0.00 | 0.00 | 67 | 1010.4 |
| 20260906112014 | 30 | 236 | 17.7 | 30.6 | 0.00 | 0.00 | 0.00 | 67 | 1010.5 |
| 20260906111525 | 30 | 158 | 17.7 | 30.6 | 0.00 | 0.00 | 0.00 | 68 | 1010.4 |
| 20260906111015 | 30 | 166 | 17.7 | 29.0 | 0.00 | 0.00 | 0.00 | 66 | 1010.5 |
| 20260906110518 | 30 | 149 | 17.7 | 25.7 | 0.00 | 0.00 | 0.00 | 64 | 1010.6 |
| 20260906110032 | 30 | 188 | 20.9 | 29.0 | 0.00 | 0.00 | 0.00 | 64 | 1010.7 |
| 20260906105521 | 30 | 175 | 24.1 | 29.0 | 0.00 | 0.00 | 0.00 | 63 | 1010.7 |
| 20260906105016 | 30 | 207 | 19.3 | 32.2 | 0.00 | 0.00 | 0.00 | 64 | 1010.7 |
| 20260906104535 | 30 | 173 | 22.5 | 32.2 | 0.00 | 0.00 | 0.00 | 64 | 1010.7 |
| 20260906104020 | 30 | 179 | 20.9 | 29.0 | 0.00 | 0.00 | 0.00 | 64 | 1010.7 |
| 20260906103519 | 30 | 165 | 19.3 | 29.0 | 0.00 | 0.00 | 0.00 | 64 | 1010.8 |
| 20260906103034 | 30 | 121 | 20.9 | 29.0 | 0.00 | 0.00 | 0.00 | 64 | 1010.8 |
| 20260906102511 | 30 | 158 | 19.3 | 25.7 | 0.00 | 0.00 | 0.00 | 64 | 1010.8 |
| 20260906102012 | 30 | 103 | 19.3 | 25.7 | 0.00 | 0.00 | 0.00 | 62 | 1010.9 |
| 20260906101524 | 30 | 141 | 16.1 | 25.7 | 0.00 | 0.00 | 0.00 | 63 | 1011.0 |
| 20260906101013 | 29 | 163 | 17.7 | 22.5 | 0.00 | 0.00 | 0.00 | 66 | 1011.1 |
| 20260906100516 | 30 | 148 | 17.7 | 22.5 | 0.00 | 0.00 | 0.00 | 65 | 1011.0 |
| 20260906100036 | 30 | 143 | 16.1 | 24.1 | 0.00 | 0.00 | 0.00 | 65 | 1011.0 |
| 20260906095525 | 29 | 153 | 19.3 | 24.1 | 0.00 | 0.00 | 0.00 | 64 | 1010.9 |
| 20260906095018 | 29 | 150 | 17.7 | 25.7 | 0.00 | 0.00 | 0.00 | 66 | 1011.0 |
| 20260906094531 | 29 | 153 | 17.7 | 25.7 | 0.00 | 0.00 | 0.00 | 68 | 1011.0 |
| 20260906094021 | 28 | 139 | 16.1 | 25.7 | 0.00 | 0.00 | 0.00 | 68 | 1011.1 |
| 20260906093519 | 28 | 169 | 17.7 | 25.7 | 0.00 | 0.00 | 0.00 | 70 | 1011.1 |
| 20260906093033 | 28 | 146 | 20.9 | 24.1 | 0.00 | 0.00 | 0.00 | 71 | 1011.2 |
| 20260906092518 | 28 | 135 | 17.7 | 22.5 | 0.00 | 0.00 | 0.00 | 71 | 1011.2 |
| 20260906092019 | 28 | 189 | 16.1 | 22.5 | 0.00 | 0.00 | 0.00 | 71 | 1011.2 |
| 20260906091536 | 28 | 134 | 14.5 | 22.5 | 0.00 | 0.00 | 0.00 | 70 | 1011.2 |
| 20260906091012 | 28 | 146 | 16.1 | 22.5 | 0.00 | 0.00 | 0.00 | 71 | 1011.2 |
| 20260906090513 | 28 | 146 | 16.1 | 20.9 | 0.00 | 0.00 | 0.00 | 72 | 1011.2 |
| 20260906090028 | 28 | 144 | 14.5 | 20.9 | 0.00 | 0.00 | 0.00 | 72 | 1011.2 |
| 20260906085514 | 28 | 133 | 16.1 | 20.9 | 0.00 | 0.00 | 0.00 | 73 | 1011.1 |
| 20260906085015 | 28 | 130 | 14.5 | 19.3 | 0.00 | 0.00 | 0.00 | 72 | 1011.2 |
| 20260906084532 | 29 | 139 | 14.5 | 19.3 | 0.00 | 0.00 | 0.00 | 71 | 1011.3 |
| 20260906084017 | 28 | 165 | 14.5 | 20.9 | 0.00 | 0.00 | 0.00 | 72 | 1011.3 |
| 20260906083516 | 28 | 128 | 16.1 | 20.9 | 0.00 | 0.00 | 0.00 | 71 | 1011.3 |
| 20260906083033 | 28 | 134 | 12.9 | 22.5 | 0.00 | 0.00 | 0.00 | 70 | 1011.2 |
| 20260906082518 | 28 | 120 | 11.3 | 24.1 | 0.00 | 0.00 | 0.00 | 72 | 1011.2 |
| 20260906082019 | 28 | 127 | 17.7 | 24.1 | 0.00 | 0.00 | 0.00 | 72 | 1011.1 |
| 20260906081535 | 28 | 125 | 14.5 | 20.9 | 0.00 | 0.00 | 0.00 | 72 | 1011.1 |
| 20260906081018 | 28 | 125 | 14.5 | 20.9 | 0.00 | 0.00 | 0.00 | 73 | 1011.1 |
| 20260906080520 | 28 | 116 | 14.5 | 19.3 | 0.00 | 0.00 | 0.00 | 71 | 1011.1 |
| 20260906080035 | 28 | 141 | 14.5 | 19.3 | 0.00 | 0.00 | 0.00 | 71 | 1011.1 |
| 20260906075513 | 28 | 127 | 14.5 | 19.3 | 0.00 | 0.00 | 0.00 | 70 | 1011.3 |
| 20260906075017 | 28 | 93 | 12.9 | 17.7 | 0.00 | 0.00 | 0.00 | 70 | 1011.2 |
| 20260906074528 | 28 | 123 | 12.9 | 17.7 | 0.00 | 0.00 | 0.00 | 70 | 1011.2 |
| 20260906074017 | 28 | 141 | 12.9 | 17.7 | 0.00 | 0.00 | 0.00 | 70 | 1011.3 |
| 20260906073517 | 28 | 119 | 9.7 | 16.1 | 0.00 | 0.00 | 0.00 | 70 | 1011.3 |
| 20260906073032 | 28 | 100 | 9.7 | 16.1 | 0.00 | 0.00 | 0.00 | 70 | 1011.3 |
| 20260906072516 | 28 | 117 | 11.3 | 16.1 | 0.00 | 0.00 | 0.00 | 69 | 1011.4 |
| 20260906072018 | 28 | 122 | 9.7 | 14.5 | 0.00 | 0.00 | 0.00 | 68 | 1011.3 |
| 20260906071533 | 28 | 135 | 6.4 | 14.5 | 0.00 | 0.00 | 0.00 | 69 | 1011.3 |
| 20260906071017 | 28 | 160 | 6.4 | 12.9 | 0.00 | 0.00 | 0.00 | 69 | 1011.2 |
| 20260906070520 | 28 | 120 | 6.4 | 11.3 | 0.00 | 0.00 | 0.00 | 69 | 1011.3 |
| 20260906070036 | 28 | 113 | 8.0 | 9.7 | 0.00 | 0.00 | 0.00 | 67 | 1011.2 |
| 20260906065524 | 28 | 76 | 6.4 | 11.3 | 0.00 | 0.00 | 0.00 | 68 | 1011.1 |
| 20260906065019 | 28 | 85 | 6.4 | 11.3 | 0.00 | 0.00 | 0.00 | 69 | 1011.1 |
| 20260906064534 | 28 | 75 | 6.4 | 9.7 | 0.00 | 0.00 | 0.00 | 68 | 1011.1 |
| 20260906064016 | 28 | 96 | 6.4 | 9.7 | 0.00 | 0.00 | 0.00 | 69 | 1011.1 |
| 20260906063516 | 28 | 65 | 4.8 | 8.0 | 0.00 | 0.00 | 0.00 | 67 | 1011.1 |
| 20260906063028 | 28 | 46 | 4.8 | 12.9 | 0.00 | 0.00 | 0.00 | 68 | 1011.1 |
| 20260906062517 | 28 | 57 | 8.0 | 12.9 | 0.00 | 0.00 | 0.00 | 67 | 1011.0 |
| 20260906062016 | 28 | 62 | 4.8 | 9.7 | 0.00 | 0.00 | 0.00 | 67 | 1011.0 |
| 20260906061536 | 29 | 64 | 4.8 | 8.0 | 0.00 | 0.00 | 0.00 | 65 | 1011.1 |
| 20260906061018 | 28 | 49 | 3.2 | 12.9 | 0.00 | 0.00 | 0.00 | 65 | 1011.1 |
| 20260906060519 | 28 | 26 | 4.8 | 12.9 | 0.00 | 0.00 | 0.00 | 65 | 1011.0 |
| 20260906060034 | 28 | 353 | 6.4 | 11.3 | 0.00 | 0.00 | 0.00 | 66 | 1011.0 |
| 20260906055521 | 28 | 46 | 1.6 | 9.7 | 0.00 | 0.00 | 0.00 | 68 | 1010.9 |
| 20260906055021 | 27 | 21 | 4.8 | 11.3 | 0.00 | 0.00 | 0.00 | 69 | 1010.9 |
| 20260906054552 | 27 | 331 | 6.4 | 11.3 | 0.00 | 0.00 | 0.00 | 69 | 1010.9 |
| 20260906054016 | 27 | 316 | 8.0 | 14.5 | 0.00 | 0.00 | 0.00 | 70 | 1010.8 |
| 20260906053516 | 27 | 299 | 9.7 | 14.5 | 0.00 | 0.00 | 0.00 | 71 | 1010.8 |
| 20260906053037 | 27 | 297 | 6.4 | 11.3 | 0.00 | 0.00 | 0.00 | 72 | 1010.8 |
| 20260906052515 | 27 | 304 | 6.4 | 11.3 | 0.00 | 0.00 | 0.00 | 72 | 1010.8 |
| 20260906052017 | 26 | 311 | 6.4 | 9.7 | 0.00 | 0.00 | 0.00 | 73 | 1010.8 |
| 20260906051528 | 26 | 285 | 4.8 | 8.0 | 0.00 | 0.00 | 0.00 | 73 | 1010.8 |
| 20260906051015 | 26 | 304 | 3.2 | 8.0 | 0.00 | 0.00 | 0.00 | 74 | 1010.8 |
| 20260906050515 | 26 | 319 | 4.8 | 8.0 | 0.00 | 0.00 | 0.00 | 74 | 1010.9 |
| 20260906050037 | 26 | 310 | 3.2 | 9.7 | 0.00 | 0.00 | 0.00 | 74 | 1010.9 |
| 20260906045520 | 26 | 299 | 6.4 | 9.7 | 0.00 | 0.00 | 0.00 | 74 | 1011.0 |
| 20260906045019 | 26 | 309 | 4.8 | 6.4 | 0.00 | 0.00 | 0.00 | 73 | 1010.9 |
| 20260906044536 | 26 | 302 | 3.2 | 6.4 | 0.00 | 0.00 | 0.00 | 73 | 1011.0 |
| 20260906044021 | 26 | 330 | 3.2 | 6.4 | 0.00 | 0.00 | 0.00 | 74 | 1011.0 |
| 20260906043515 | 26 | 341 | 3.2 | 8.0 | 0.00 | 0.00 | 0.00 | 74 | 1010.9 |
| 20260906043035 | 26 | 340 | 3.2 | 11.3 | 0.00 | 0.00 | 0.00 | 74 | 1010.9 |
| 20260906042515 | 26 | 326 | 4.8 | 11.3 | 0.00 | 0.00 | 0.00 | 74 | 1010.9 |
| 20260906042018 | 25 | 34 | 6.4 | 12.9 | 0.00 | 0.00 | 0.00 | 75 | 1010.9 |
| 20260906041536 | 25 | 23 | 4.8 | 12.9 | 0.00 | 0.00 | 0.00 | 75 | 1010.9 |
| 20260906041016 | 25 | 340 | 8.0 | 12.9 | 0.00 | 0.00 | 0.00 | 75 | 1011.0 |
| 20260906040517 | 25 | 335 | 8.0 | 12.9 | 0.00 | 0.00 | 0.00 | 74 | 1010.9 |
| 20260906040057 | 25 | 18 | 8.0 | 12.9 | 0.00 | 0.00 | 0.00 | 75 | 1010.9 |
| 20260906035519 | 25 | 345 | 6.4 | 14.5 | 0.00 | 0.00 | 0.00 | 76 | 1010.8 |
| 20260906035020 | 25 | 30 | 8.0 | 14.5 | 0.00 | 0.00 | 0.00 | 77 | 1010.8 |
| 20260906034533 | 25 | 10 | 3.2 | 9.7 | 0.00 | 0.00 | 0.00 | 79 | 1010.8 |
| 20260906034019 | 25 | 39 | 4.8 | 9.7 | 0.00 | 0.00 | 0.00 | 80 | 1010.8 |
| 20260906033510 | 24 | 34 | 3.2 | 8.0 | 0.00 | 0.00 | 0.00 | 81 | 1010.7 |
| 20260906033033 | 24 | 357 | 1.6 | 8.0 | 0.00 | 0.00 | 0.00 | 81 | 1010.7 |
| 20260906032513 | 24 | 77 | 0.0 | 8.0 | 0.00 | 0.00 | 0.00 | 82 | 1010.6 |
| 20260906032013 | 24 | 39 | 4.8 | 8.0 | 0.00 | 0.00 | 0.00 | 82 | 1010.6 |
| 20260906031523 | 23 | 8 | 1.6 | 6.4 | 0.00 | 0.00 | 0.00 | 82 | 1010.6 |
| 20260906031013 | 23 | 320 | 1.6 | 4.8 | 0.00 | 0.00 | 0.00 | 82 | 1010.5 |
| 20260906030515 | 24 | 308 | 3.2 | 6.4 | 0.00 | 0.00 | 0.00 | 82 | 1010.4 |
| 20260906030029 | 24 | 304 | 4.8 | 6.4 | 0.00 | 0.00 | 0.00 | 82 | 1010.4 |
| 20260906025516 | 23 | 306 | 4.8 | 4.8 | 0.00 | 0.00 | 0.00 | 81 | 1010.4 |
| 20260906025018 | 24 | 295 | 3.2 | 3.2 | 0.00 | 0.00 | 0.00 | 82 | 1010.3 |
| 20260906024535 | 24 | 305 | 1.6 | 4.8 | 0.00 | 0.00 | 0.00 | 81 | 1010.3 |
| 20260906024011 | 24 | 306 | 3.2 | 6.4 | 0.00 | 0.00 | 0.00 | 81 | 1010.3 |
| 20260906023508 | 24 | 304 | 4.8 | 6.4 | 0.00 | 0.00 | 0.00 | 81 | 1010.3 |
| 20260906023016 | 24 | 296 | 3.2 | 4.8 | 0.00 | 0.00 | 0.00 | 81 | 1010.2 |
| 20260906022509 | 24 | 306 | 3.2 | 4.8 | 0.00 | 0.00 | 0.00 | 81 | 1010.2 |
| 20260906022012 | 24 | 305 | 0.0 | 4.8 | 0.00 | 0.00 | 0.00 | 82 | 1010.3 |
| 20260906021524 | 24 | 316 | 3.2 | 4.8 | 0.00 | 0.00 | 0.00 | 82 | 1010.3 |
| 20260906021015 | 25 | 311 | 3.2 | 4.8 | 0.00 | 0.00 | 0.00 | 82 | 1010.3 |
| 20260906020513 | 25 | 350 | 0.0 | 6.4 | 0.00 | 0.00 | 0.00 | 83 | 1010.3 |
| 20260906020030 | 25 | 309 | 3.2 | 6.4 | 0.00 | 0.00 | 0.00 | 83 | 1010.3 |
| 20260906015516 | 25 | 299 | 1.6 | 4.8 | 0.00 | 0.00 | 0.00 | 83 | 1010.3 |
| 20260906015014 | 25 | 328 | 3.2 | 6.4 | 0.00 | 0.00 | 0.00 | 83 | 1010.3 |
| 20260906014537 | 25 | 332 | 1.6 | 6.4 | 0.00 | 0.00 | 0.00 | 82 | 1010.3 |
| 20260906014016 | 25 | 321 | 1.6 | 4.8 | 0.00 | 0.00 | 0.00 | 82 | 1010.3 |
| 20260906013516 | 25 | 303 | 1.6 | 3.2 | 0.00 | 0.00 | 0.00 | 82 | 1010.3 |
| 20260906013012 | 25 | 330 | 1.6 | 4.8 | 0.00 | 0.00 | 0.00 | 81 | 1010.2 |
| 20260906012511 | 25 | 317 | 0.0 | 4.8 | 0.00 | 0.00 | 0.00 | 81 | 1010.2 |
| 20260906012010 | 25 | 310 | 3.2 | 4.8 | 0.00 | 0.00 | 0.00 | 81 | 1010.2 |
| 20260906011518 | 25 | 347 | 1.6 | 4.8 | 0.00 | 0.00 | 0.00 | 81 | 1010.2 |
| 20260906011009 | 25 | 325 | 1.6 | 4.8 | 0.00 | 0.00 | 0.00 | 81 | 1010.2 |
| 20260906010512 | 25 | 20 | 0.0 | 4.8 | 0.00 | 0.00 | 0.00 | 81 | 1010.1 |
| 20260906010026 | 25 | 32 | 0.0 | 4.8 | 0.00 | 0.00 | 0.00 | 81 | 1010.1 |
| 20260906005515 | 25 | 354 | 3.2 | 4.8 | 0.00 | 0.00 | 0.00 | 81 | 1010.2 |
| 20260906005013 | 25 | 8 | 1.6 | 3.2 | 0.00 | 0.00 | 0.00 | 81 | 1010.2 |
| 20260906004530 | 25 | 7 | 1.6 | 4.8 | 0.00 | 0.00 | 0.00 | 81 | 1010.2 |
| 20260906004021 | 25 | 341 | 3.2 | 4.8 | 0.00 | 0.00 | 0.00 | 82 | 1010.3 |
| 20260906003514 | 25 | 336 | 1.6 | 8.0 | 0.00 | 0.00 | 0.00 | 82 | 1010.3 |
| 20260906003037 | 25 | 307 | 3.2 | 8.0 | 0.00 | 0.00 | 0.00 | 82 | 1010.3 |
| 20260906002515 | 25 | 288 | 3.2 | 6.4 | 0.00 | 0.00 | 0.00 | 82 | 1010.3 |
| 20260906002016 | 25 | 308 | 4.8 | 6.4 | 0.00 | 0.00 | 0.00 | 81 | 1010.3 |
| 20260906001517 | 25 | 306 | 3.2 | 3.2 | 0.00 | 0.00 | 0.00 | 81 | 1010.2 |
| 20260906001010 | 26 | 305 | 3.2 | 3.2 | 0.00 | 0.00 | 0.00 | 81 | 1010.2 |
| 20260906000509 | 26 | 302 | 0.0 | 3.2 | 0.00 | 0.00 | 0.00 | 81 | 1010.2 |
| 20260906000020 | 26 | 38 | 1.6 | 3.2 | 0.00 | 0.00 | 0.00 | 82 | 1010.3 |
| 20260905235512 | 26 | 56 | 0.0 | 4.8 | 0.00 | 0.00 | 0.00 | 81 | 1010.2 |
| 20260905235013 | 26 | 30 | 1.6 | 4.8 | 0.00 | 0.00 | 0.00 | 81 | 1010.2 |
| 20260905234527 | 26 | 347 | 4.8 | 4.8 | 0.00 | 0.00 | 0.00 | 81 | 1010.3 |
| 20260905234015 | 26 | 4 | 0.0 | 0.0 | 0.00 | 0.00 | 0.00 | 82 | 1010.3 |
| 20260905233516 | 26 | 5 | 0.0 | 0.0 | 0.00 | 0.00 | 0.00 | 81 | 1010.3 |
| 20260905233035 | 26 | 5 | 0.0 | 0.0 | 0.00 | 0.00 | 0.00 | 81 | 1010.3 |
| 20260905232518 | 26 | 5 | 0.0 | 3.2 | 0.00 | 0.00 | 0.00 | 81 | 1010.3 |
| 20260905232016 | 26 | 4 | 0.0 | 4.8 | 0.00 | 0.00 | 0.00 | 81 | 1010.4 |
| 20260905231538 | 26 | 346 | 0.0 | 6.4 | 0.00 | 0.00 | 0.00 | 82 | 1010.5 |
| 20260905231015 | 26 | 308 | 1.6 | 6.4 | 0.00 | 0.00 | 0.00 | 82 | 1010.6 |
| 20260905230521 | 25 | 302 | 3.2 | 6.4 | 0.00 | 0.00 | 0.00 | 81 | 1010.6 |
| 20260905230018 | 26 | 313 | 4.8 | 6.4 | 0.00 | 0.00 | 0.00 | 81 | 1010.5 |
| 20260905225512 | 26 | 310 | 3.2 | 6.4 | 0.00 | 0.00 | 0.00 | 81 | 1010.5 |
| 20260905225014 | 26 | 300 | 4.8 | 6.4 | 0.00 | 0.00 | 0.00 | 81 | 1010.5 |
| 20260905224555 | 26 | 304 | 3.2 | 4.8 | 0.00 | 0.00 | 0.00 | 81 | 1010.5 |
| 20260905224014 | 26 | 303 | 3.2 | 3.2 | 0.00 | 0.00 | 0.00 | 81 | 1010.4 |
| 20260905223515 | 26 | 308 | 1.6 | 3.2 | 0.00 | 0.00 | 0.00 | 81 | 1010.5 |
| 20260905223031 | 26 | 301 | 3.2 | 4.8 | 0.00 | 0.00 | 0.00 | 81 | 1010.5 |
| 20260905222514 | 26 | 304 | 1.6 | 6.4 | 0.00 | 0.00 | 0.00 | 81 | 1010.6 |
| 20260905222015 | 26 | 306 | 3.2 | 6.4 | 0.00 | 0.00 | 0.00 | 81 | 1010.6 |
| 20260905221533 | 26 | 307 | 4.8 | 6.4 | 0.00 | 0.00 | 0.00 | 81 | 1010.6 |
| 20260905221018 | 26 | 332 | 3.2 | 6.4 | 0.00 | 0.00 | 0.00 | 81 | 1010.6 |
| 20260905220517 | 26 | 295 | 3.2 | 6.4 | 0.00 | 0.00 | 0.00 | 81 | 1010.6 |
| 20260905220035 | 26 | 143 | 0.0 | 0.0 | 0.00 | 0.00 | 0.00 | 81 | 1010.6 |
| 20260905215520 | 26 | 142 | 0.0 | 0.0 | 0.00 | 0.00 | 0.00 | 81 | 1010.6 |
| 20260905215023 | 26 | 142 | 0.0 | 0.0 | 0.00 | 0.00 | 0.00 | 82 | 1010.6 |
| 20260905214520 | 27 | 142 | 0.0 | 0.0 | 0.00 | 0.00 | 0.00 | 81 | 1010.6 |
| 20260905214014 | 26 | 142 | 0.0 | 0.0 | 0.00 | 0.00 | 0.00 | 81 | 1010.6 |
| 20260905213513 | 27 | 142 | 0.0 | 0.0 | 0.00 | 0.00 | 0.00 | 80 | 1010.6 |
| 20260905213029 | 27 | 333 | 0.0 | 0.0 | 0.00 | 0.00 | 0.00 | 80 | 1010.6 |
| 20260905212521 | 27 | 333 | 0.0 | 3.2 | 0.00 | 0.00 | 0.00 | 80 | 1010.7 |
| 20260905212014 | 27 | 333 | 0.0 | 8.0 | 0.00 | 0.00 | 0.00 | 80 | 1010.7 |
| 20260905211541 | 27 | 167 | 0.0 | 11.3 | 0.00 | 0.00 | 0.00 | 80 | 1010.7 |
| 20260905211015 | 27 | 150 | 6.4 | 12.9 | 0.00 | 0.00 | 0.00 | 80 | 1010.6 |
| 20260905210516 | 27 | 158 | 9.7 | 12.9 | 0.00 | 0.00 | 0.00 | 80 | 1010.6 |
| 20260905210019 | 27 | 135 | 9.7 | 11.3 | 0.00 | 0.00 | 0.00 | 79 | 1010.7 |
| 20260905205507 | 26 | 150 | 8.0 | 9.7 | 0.00 | 0.00 | 0.00 | 79 | 1010.8 |
| 20260905205009 | 26 | 154 | 1.6 | 3.2 | 0.00 | 0.00 | 0.00 | 79 | 1010.9 |
| 20260905204516 | 26 | 221 | 1.6 | 4.8 | 0.00 | 0.00 | 0.00 | 79 | 1011.0 |
| 20260905204009 | 26 | 221 | 1.6 | 4.8 | 0.00 | 0.00 | 0.00 | 79 | 1011.0 |
| 20260905203510 | 27 | 242 | 3.2 | 4.8 | 0.00 | 0.00 | 0.00 | 79 | 1011.0 |
| 20260905203026 | 27 | 233 | 3.2 | 6.4 | 0.00 | 0.00 | 0.00 | 79 | 1011.1 |
| 20260905202515 | 27 | 228 | 3.2 | 6.4 | 0.00 | 0.00 | 0.00 | 79 | 1011.1 |
| 20260905202014 | 27 | 209 | 3.2 | 6.4 | 0.00 | 0.00 | 0.00 | 78 | 1011.1 |
| 20260905201527 | 27 | 203 | 3.2 | 6.4 | 0.00 | 0.00 | 0.00 | 78 | 1011.1 |
| 20260905201014 | 27 | 229 | 1.6 | 4.8 | 0.00 | 0.00 | 0.00 | 78 | 1011.1 |
| 20260905200521 | 27 | 257 | 3.2 | 4.8 | 0.00 | 0.00 | 0.00 | 78 | 1011.0 |
| 20260905200033 | 27 | 247 | 3.2 | 6.4 | 0.00 | 0.00 | 0.00 | 78 | 1011.0 |
| 20260905195515 | 27 | 250 | 3.2 | 8.0 | 0.00 | 0.00 | 0.00 | 78 | 1011.0 |
| 20260905195015 | 27 | 281 | 6.4 | 9.7 | 0.00 | 0.00 | 0.00 | 78 | 1011.1 |
| 20260905194518 | 27 | 304 | 4.8 | 9.7 | 0.00 | 0.00 | 0.00 | 78 | 1011.1 |
| 20260905194008 | 27 | 300 | 6.4 | 9.7 | 0.00 | 0.00 | 0.00 | 78 | 1011.1 |
| 20260905193508 | 27 | 308 | 4.8 | 9.7 | 0.00 | 0.00 | 0.00 | 78 | 1011.0 |
| 20260905193018 | 27 | 291 | 3.2 | 9.7 | 0.00 | 0.00 | 0.00 | 78 | 1011.1 |
| 20260905192512 | 27 | 302 | 6.4 | 9.7 | 0.00 | 0.00 | 0.00 | 78 | 1011.0 |
| 20260905192011 | 27 | 297 | 6.4 | 11.3 | 0.00 | 0.00 | 0.00 | 77 | 1011.0 |
| 20260905191527 | 27 | 288 | 6.4 | 11.3 | 0.00 | 0.00 | 0.00 | 77 | 1011.0 |
| 20260905191016 | 27 | 295 | 4.8 | 11.3 | 0.00 | 0.00 | 0.00 | 77 | 1011.0 |
| 20260905190515 | 27 | 304 | 3.2 | 12.9 | 0.00 | 0.00 | 0.00 | 77 | 1011.1 |
| 20260905190031 | 27 | 354 | 8.0 | 12.9 | 0.00 | 0.00 | 0.00 | 77 | 1011.1 |
| 20260905185518 | 27 | 327 | 6.4 | 8.0 | 0.00 | 0.00 | 0.00 | 76 | 1011.2 |
| 20260905185014 | 27 | 285 | 0.0 | 6.4 | 0.00 | 0.00 | 0.00 | 76 | 1011.2 |
| 20260905184543 | 27 | 312 | 1.6 | 6.4 | 0.00 | 0.00 | 0.00 | 76 | 1011.2 |
| 20260905184019 | 27 | 318 | 3.2 | 6.4 | 0.00 | 0.00 | 0.00 | 76 | 1011.2 |
| 20260905183508 | 27 | 327 | 3.2 | 8.0 | 0.00 | 0.00 | 0.00 | 76 | 1011.2 |
| 20260905183013 | 27 | 307 | 3.2 | 9.7 | 0.00 | 0.00 | 0.00 | 76 | 1011.1 |
| 20260905182507 | 27 | 315 | 3.2 | 12.9 | 0.00 | 0.00 | 0.00 | 76 | 1011.1 |
| 20260905182012 | 27 | 320 | 6.4 | 12.9 | 0.00 | 0.00 | 0.00 | 76 | 1011.2 |
| 20260905181519 | 27 | 300 | 4.8 | 12.9 | 0.00 | 0.00 | 0.00 | 76 | 1011.0 |
| 20260905181014 | 27 | 41 | 1.6 | 12.9 | 0.00 | 0.00 | 0.00 | 76 | 1011.2 |
| 20260905180520 | 27 | 310 | 8.0 | 12.9 | 0.00 | 0.00 | 0.00 | 75 | 1011.2 |
| 20260905180027 | 27 | 304 | 4.8 | 11.3 | 0.00 | 0.00 | 0.00 | 75 | 1011.2 |
| 20260905175515 | 28 | 300 | 4.8 | 12.9 | 0.00 | 0.00 | 0.00 | 75 | 1011.2 |
| 20260905175016 | 28 | 295 | 3.2 | 14.5 | 0.00 | 0.00 | 0.00 | 75 | 1011.1 |
| 20260905174530 | 28 | 315 | 6.4 | 14.5 | 0.00 | 0.00 | 0.00 | 75 | 1011.1 |
| 20260905174016 | 28 | 316 | 8.0 | 12.9 | 0.00 | 0.00 | 0.00 | 75 | 1011.1 |
| 20260905173516 | 27 | 279 | 8.0 | 14.5 | 0.00 | 0.00 | 0.00 | 76 | 1011.0 |
| 20260905173039 | 28 | 253 | 11.3 | 16.1 | 0.00 | 0.00 | 0.00 | 75 | 1010.9 |
| 20260905172518 | 27 | 268 | 8.0 | 16.1 | 0.00 | 0.00 | 0.00 | 76 | 1010.9 |
| 20260905172014 | 27 | 268 | 12.9 | 19.3 | 0.00 | 0.00 | 0.00 | 76 | 1010.8 |
| 20260905171516 | 27 | 240 | 12.9 | 19.3 | 0.00 | 0.00 | 0.00 | 77 | 1010.8 |
| 20260905171011 | 27 | 246 | 14.5 | 19.3 | 0.00 | 0.00 | 0.00 | 77 | 1010.8 |
| 20260905170515 | 27 | 245 | 12.9 | 20.9 | 0.00 | 0.00 | 0.00 | 78 | 1010.8 |
| 20260905170033 | 27 | 258 | 14.5 | 20.9 | 0.00 | 0.00 | 0.00 | 78 | 1010.7 |
| 20260905165514 | 27 | 248 | 16.1 | 20.9 | 0.00 | 0.00 | 0.00 | 79 | 1010.7 |
| 20260905165015 | 27 | 250 | 17.7 | 22.5 | 0.00 | 0.00 | 0.00 | 79 | 1010.6 |
| 20260905164531 | 27 | 253 | 16.1 | 24.1 | 0.00 | 0.00 | 0.00 | 80 | 1010.5 |
| 20260905164017 | 27 | 235 | 17.7 | 24.1 | 0.00 | 0.00 | 0.00 | 80 | 1010.5 |
| 20260905163514 | 27 | 262 | 12.9 | 24.1 | 0.00 | 0.00 | 0.00 | 80 | 1010.4 |
| 20260905163031 | 27 | 238 | 17.7 | 29.0 | 0.00 | 0.00 | 0.00 | 80 | 1010.4 |
| 20260905162517 | 27 | 245 | 20.9 | 29.0 | 0.00 | 0.00 | 0.00 | 80 | 1010.3 |
| 20260905162019 | 27 | 250 | 16.1 | 30.6 | 0.00 | 0.00 | 0.00 | 81 | 1010.3 |
| 20260905161539 | 27 | 238 | 20.9 | 30.6 | 0.00 | 0.00 | 0.00 | 81 | 1010.3 |
| 20260905161015 | 27 | 248 | 20.9 | 29.0 | 0.00 | 0.00 | 0.00 | 80 | 1010.3 |
| 20260905160509 | 27 | 219 | 24.1 | 29.0 | 0.00 | 0.00 | 0.00 | 80 | 1010.3 |
| 20260905160016 | 27 | 212 | 20.9 | 27.4 | 0.00 | 0.00 | 0.00 | 80 | 1010.3 |
| 20260905155511 | 27 | 219 | 17.7 | 27.4 | 0.00 | 0.00 | 0.00 | 79 | 1010.3 |
| 20260905155012 | 27 | 230 | 19.3 | 27.4 | 0.00 | 0.00 | 0.00 | 79 | 1010.3 |
| 20260905154523 | 28 | 209 | 19.3 | 27.4 | 0.00 | 0.00 | 0.00 | 78 | 1010.3 |
| 20260905154016 | 28 | 217 | 19.3 | 25.7 | 0.00 | 0.00 | 0.00 | 78 | 1010.3 |
| 20260905153514 | 28 | 213 | 16.1 | 29.0 | 0.00 | 0.00 | 0.00 | 77 | 1010.2 |
| 20260905153028 | 28 | 212 | 17.7 | 29.0 | 0.00 | 0.00 | 0.00 | 77 | 1010.3 |
| 20260905152515 | 28 | 219 | 22.5 | 25.7 | 0.00 | 0.00 | 0.00 | 76 | 1010.4 |
| 20260905152018 | 28 | 207 | 16.1 | 25.7 | 0.00 | 0.00 | 0.00 | 76 | 1010.4 |
| 20260905151532 | 28 | 206 | 16.1 | 24.1 | 0.00 | 0.00 | 0.00 | 75 | 1010.3 |
| 20260905151018 | 28 | 199 | 16.1 | 27.4 | 0.00 | 0.00 | 0.00 | 75 | 1010.3 |
| 20260905150519 | 28 | 215 | 19.3 | 27.4 | 0.00 | 0.00 | 0.00 | 74 | 1010.3 |
| 20260905150039 | 28 | 215 | 19.3 | 27.4 | 0.00 | 0.00 | 0.00 | 75 | 1010.3 |
| 20260905145519 | 29 | 209 | 17.7 | 25.7 | 0.00 | 0.00 | 0.00 | 73 | 1010.3 |
| 20260905145011 | 28 | 233 | 19.3 | 25.7 | 0.00 | 0.00 | 0.00 | 69 | 1010.3 |
| 20260905144524 | 29 | 195 | 19.3 | 25.7 | 0.00 | 0.00 | 0.00 | 71 | 1010.3 |
| 20260905144017 | 29 | 214 | 16.1 | 25.7 | 0.00 | 0.00 | 0.00 | 70 | 1010.3 |
| 20260905143514 | 29 | 231 | 17.7 | 25.7 | 0.00 | 0.00 | 0.00 | 69 | 1010.4 |
| 20260905143024 | 29 | 243 | 20.9 | 25.7 | 0.00 | 0.00 | 0.00 | 70 | 1010.4 |
| 20260905142515 | 29 | 215 | 16.1 | 27.4 | 0.00 | 0.00 | 0.00 | 71 | 1010.4 |
| 20260905142016 | 29 | 212 | 20.9 | 29.0 | 0.00 | 0.00 | 0.00 | 70 | 1010.5 |
| 20260905141531 | 29 | 236 | 22.5 | 29.0 | 0.00 | 0.00 | 0.00 | 70 | 1010.4 |
| 20260905141017 | 29 | 210 | 17.7 | 24.1 | 0.00 | 0.00 | 0.00 | 69 | 1010.4 |
| 20260905140521 | 29 | 169 | 17.7 | 25.7 | 0.00 | 0.00 | 0.00 | 70 | 1010.4 |
| 20260905140036 | 29 | 173 | 17.7 | 25.7 | 0.00 | 0.00 | 0.00 | 65 | 1010.3 |
| 20260905135519 | 29 | 207 | 17.7 | 24.1 | 0.00 | 0.00 | 0.00 | 64 | 1010.4 |
| 20260905135019 | 29 | 150 | 19.3 | 25.7 | 0.00 | 0.00 | 0.00 | 63 | 1010.4 |
| 20260905134535 | 29 | 207 | 17.7 | 25.7 | 0.00 | 0.00 | 0.00 | 64 | 1010.4 |
| 20260905134015 | 29 | 207 | 16.1 | 27.4 | 0.00 | 0.00 | 0.00 | 65 | 1010.4 |
| 20260905133513 | 29 | 206 | 17.7 | 27.4 | 0.00 | 0.00 | 0.00 | 64 | 1010.5 |
| 20260905133033 | 29 | 194 | 16.1 | 29.0 | 0.00 | 0.00 | 0.00 | 69 | 1010.5 |
| 20260905132512 | 29 | 224 | 22.5 | 29.0 | 0.00 | 0.00 | 0.00 | 69 | 1010.6 |
| 20260905132014 | 29 | 191 | 19.3 | 29.0 | 0.00 | 0.00 | 0.00 | 69 | 1010.6 |
| 20260905131529 | 29 | 209 | 19.3 | 29.0 | 0.00 | 0.00 | 0.00 | 70 | 1010.5 |
| 20260905131016 | 29 | 173 | 16.1 | 25.7 | 0.00 | 0.00 | 0.00 | 71 | 1010.6 |
| 20260905130516 | 29 | 223 | 19.3 | 25.7 | 0.00 | 0.00 | 0.00 | 71 | 1010.6 |